OPS 4682 DEB, 14716

Orbit data source: Space-Track

OPS 4682 DEB, 14716 is space debris in LEO originally from a launch on Sat, 03 Apr 1965 UTC launched from the Air Force Western Test Range (AFWTR). Debris objects in space refer to the collection of defunct objects orbiting the Earth. Examples of debris include non-operational satellites, rocket bodies, and fragments generated from explosions, collisions, or faulty payload assembly.

Loading next visibility...
Identifier
14716, 1965-027P
Orbit
LEO
Country
Flag of USUS
Related business
Manufacturer
Unknown
Mission
Spacecraft
Bus & Motor
Unknown
Mass
Unknown
Launch date (UTC)
1965-04-03 (61 years ago)
Launch vehicle
Unknown
Launch site
Air Force Western Test Range (AFWTR)
Object type
Payload
Rocket body
Debris
Shape & HBR
Unknown shape, 0.1 m
Radar Cross Section
Small (<0.1 m²)

Expand to show TLE details & history
Last TLE update: 16 hours ago

TLE from 16 hours ago
0 OPS 4682 DEB
1 14716U 65027P   26103.73686382  .00000915  00000-0  30261-2 0  9993
2 14716  90.2544  12.6888 0029645 118.5678 268.4662 12.99623629431102
Epoch: 2026-04-13T17:41Z
TLE epoch observation values (Epoch: 2026-04-13T17:41:05.034Z)
Latitude
26.7269°
Longitude
-94.63281°
Altitude
1,267.493 km
Speed
7.224 km/s
True Right ascension
00h 50m 14s
True Declination
26° 35' 54"
Sunlit
Object was in daylight at epoch
Visualization orbit readout
Latitude
Unknown
Longitude
Unknown
Altitude
Unknown
Speed
Unknown
Apparent Right ascension
Unknown
Apparent Declination
Unknown
Sunlit
N/A
Visualization observer readout
Local Sidereal Time
15:41:52
Azimuth
Unknown
Elevation
Unknown
Doppler factor
Unknown
Orbital elements
Apogee altitude
1,283.334 km
Perigee altitude
1,238.044 km
Semi-major axis
7,638.826 km
Eccentricity
0.00296
Inclination
90.2544°
RAAN
12.6888°
Arg. of periapsis
118.5678°
True anomaly
268.12665°
Mean anomaly
268.4662°
Eccentric anomaly
268.29642°
Mean motion
3.2509 °/min
Orbital period
110.74 mins
BSTAR
0.0030261
Loading maneuver chart data...
Computing Atmospheric mass density...
Loading historical data...
Loading historical data...
Loading historical data...
Loading historical data...
Loading historical data...
Loading historical data...
Loading historical data...

Documentation

Showing up to 5 results
|